User: anonymous   Login
Location: Unspecified
(0.0000°N, 0.0000°E)
Time: 20:21:51
(UTC+01:00)
Language:

ARIANE 5 R/B - Orbit

View from above orbital plane
View from above orbital plane
View from above satellite
View from above satellite

Ground track
Ground track

The orbit data is extracted from the following two-line orbital elements,

1 27387U 02009B   14354.91832350  .00000319  00000-0  12422-3 0  3481
2 27387 098.3414 311.2892 0031701 332.8852 091.9053 14.35781863671060
Epoch (UTC): 20 December 2014 22:02:23
Eccentricity: 0.0031701
inclination: 98.3414°
perigee height: 750 km
apogee height: 795 km
right ascension of ascending node: 311.2892°
argument of perigee: 332.8852°
revolutions per day: 14.35781863
mean anomaly at epoch: 91.9053°
orbit number at epoch: 67106

The dashed part of the orbit path shows where the satellite is in the earth's shadow,  

DLR